WE3C Weather Reports


Display with metric or nautical units.
time (UTC)temp
F
wind
direction
speed
MPH
gust
MPH
rain 1hr
in
rain 24hr
in
rain mn
in
humidity
%
barometer
mb
20260902030013 70 324 0.0 0.0 0.00 0.00 0.00 80 1020.3
20260902024512 70 305 0.0 0.0 0.00 0.00 0.00 80 1020.4
20260902023012 70 287 0.0 0.0 0.00 0.00 0.00 80 1019.9
20260902021514 70 283 0.0 0.0 0.00 0.00 0.00 80 1019.8
20260902020011 70 255 0.0 0.0 0.00 0.00 0.00 80 1019.7
20260902014523 70 360 0.0 0.0 0.00 0.00 0.00 80 1019.5
20260902013010 71 303 0.0 0.0 0.00 0.00 0.00 80 1019.7
20260902011514 71 318 0.0 0.0 0.00 0.00 0.00 80 1019.3
20260902010009 71 331 0.0 0.0 0.00 0.00 0.00 80 1019.5
20260902004509 71 330 0.0 0.0 0.00 0.00 0.00 80 1019.4
20260902003010 71 277 0.0 0.0 0.00 0.00 0.00 80 1019.2
20260902001508 70 196 0.0 0.0 0.00 0.00 0.00 80 1019.2
20260902000007 71 138 0.0 0.0 0.00 0.00 0.00 81 1019.8
20260901234518 71 49 0.0 0.0 0.00 0.00 0.00 81 1019.5
20260901233006 72 34 0.0 0.0 0.00 0.00 0.00 82 1019.7
20260901231510 74 330 0.0 0.0 0.00 0.00 0.00 82 1020.2
20260901230004 75 210 0.0 0.0 0.00 0.00 0.00 81 1018.3
20260901224506 79 203 0.0 0.0 0.00 0.00 0.00 80 1018.7
20260901223003 81 243 0.0 0.0 0.00 0.00 0.00 80 1017.9
20260901221506 82 305 0.0 0.0 0.00 0.00 0.00 79 1018.2
20260901220002 83 306 0.0 0.0 0.00 0.00 0.00 78 1017.9
20260901214502 83 306 0.0 0.0 0.00 0.00 0.00 77 1017.8
20260901213002 84 308 0.0 0.0 0.00 0.00 0.00 76 1018.3
20260901211501 85 360 0.0 0.0 0.00 0.00 0.00 73 1018.4
20260901204601 86 221 0.0 0.0 0.00 0.00 0.00 71 1018.2
20260901203057 86 284 0.0 0.0 0.00 0.00 0.00 72 1018.4
20260901201555 86 250 0.0 0.0 0.00 0.00 0.00 72 1018.6
20260901200101 85 265 0.0 0.0 0.00 0.00 0.00 74 1018.7
20260901194603 85 262 0.0 0.0 0.00 0.00 0.00 74 1018.8
20260901193053 85 218 0.0 0.0 0.00 0.00 0.00 74 1018.8
20260901191548 85 227 0.0 0.0 0.00 0.00 0.00 74 1018.9
20260901184546 84 360 0.0 0.0 0.00 0.00 0.00 74 1019.5
20260901183047 84 217 0.0 0.0 0.00 0.00 0.00 73 1019.3
20260901181549 83 224 0.0 0.0 0.00 0.00 0.00 77 1019.4
20260901180038 81 230 0.0 0.0 0.00 0.00 0.00 77 1019.7
20260901174537 82 233 0.0 0.0 0.00 0.00 0.00 77 1019.7
20260901173048 82 209 0.0 0.0 0.00 0.00 0.00 76 1019.6
20260901171534 82 227 0.0 0.0 0.00 0.00 0.00 77 1019.6
20260901170031 81 241 0.0 0.0 0.00 0.00 0.00 78 1019.8
20260901164528 80 257 0.0 0.0 0.00 0.00 0.00 79 1019.8
20260901163025 79 191 0.0 0.0 0.00 0.00 0.00 81 1020.1
20260901161521 77 207 0.0 0.0 0.00 0.00 0.00 81 1020.3
20260901160018 77 218 0.0 0.0 0.00 0.00 0.00 81 1020.4
20260901154516 76 240 0.0 0.0 0.00 0.00 0.00 81 1020.6
20260901153031 75 243 0.0 0.0 0.00 0.00 0.00 82 1020.6
20260901151517 75 240 0.0 0.0 0.00 0.00 0.00 82 1020.4
20260901150015 75 248 0.0 0.0 0.00 0.00 0.00 81 1020.7
20260901144525 75 249 0.0 0.0 0.00 0.00 0.00 82 1020.8
20260901143014 76 360 0.0 0.0 0.00 0.00 0.00 82 1020.8
20260901141515 76 261 0.0 0.0 0.00 0.00 0.00 82 1020.5
20260901140012 76 290 0.0 0.0 0.00 0.00 0.00 82 1020.5
20260901134508 75 237 0.0 0.0 0.00 0.00 0.00 81 1020.7
20260901133006 73 254 0.0 0.0 0.00 0.00 0.00 80 1020.6
20260901131608 72 238 0.0 0.0 0.00 0.00 0.00 80 1020.8
20260901130057 71 360 0.0 0.0 0.00 0.00 0.00 80 1021.0
20260901124558 71 360 0.0 0.0 0.00 0.00 0.00 80 1021.1
20260901123055 71 280 0.0 0.0 0.00 0.00 0.00 80 1021.2
20260901121609 71 287 0.0 0.0 0.00 0.00 0.00 80 1021.3
20260901120104 70 238 0.0 0.0 0.00 0.00 0.00 80 1021.0
20260901114559 70 211 0.0 0.0 0.00 0.00 0.00 80 1020.7
20260901113051 70 213 0.0 0.0 0.00 0.00 0.00 80 1020.8
20260901111552 70 231 0.0 0.0 0.00 0.00 0.00 80 1020.8
20260901110048 70 241 0.0 0.0 0.00 0.00 0.00 80 1021.1
20260901104548 70 360 0.0 0.0 0.00 0.00 0.00 80 1021.0
20260901103047 70 235 0.0 0.0 0.00 0.00 0.00 80 1021.1
20260901101552 70 254 0.0 0.0 0.00 0.00 0.00 80 1021.0
20260901100046 70 236 0.0 0.0 0.00 0.00 0.00 80 1021.0
20260901094545 69 248 0.0 0.0 0.00 0.00 0.00 80 1021.0
20260901093111 69 246 0.0 0.0 0.00 0.00 0.00 80 1021.0
20260901091558 69 239 0.0 0.0 0.00 0.00 0.00 80 1021.1
20260901090043 69 227 0.0 0.0 0.00 0.00 0.00 80 1021.0
20260901084542 70 235 0.0 0.0 0.00 0.00 0.00 80 1021.1
20260901083046 70 247 0.0 0.0 0.00 0.00 0.00 80 1021.2
20260901081542 69 239 0.0 0.0 0.00 0.00 0.00 80 1021.3
20260901080045 70 241 0.0 0.0 0.00 0.00 0.00 80 1021.4
20260901074539 70 247 0.0 0.0 0.00 0.00 0.00 80 1021.4
20260901073038 70 244 0.0 0.0 0.00 0.00 0.00 80 1021.4
20260901071539 70 242 0.0 0.0 0.00 0.00 0.00 80 1021.2
20260901070038 70 225 0.0 0.0 0.00 0.00 0.00 80 1021.3
20260901064539 69 245 0.0 0.0 0.00 0.00 0.00 80 1021.4
20260901063037 69 229 0.0 0.0 0.00 0.00 0.00 80 1021.6
20260901061532 69 242 0.0 0.0 0.00 0.00 0.00 80 1021.7
20260901060028 68 236 0.0 0.0 0.00 0.00 0.00 81 1021.8
20260901054527 68 216 0.0 0.0 0.00 0.00 0.00 81 1021.9
20260901053011 68 217 0.0 0.0 0.00 0.00 0.00 81 1022.2
20260901051507 68 221 0.0 0.0 0.00 0.00 0.00 81 1022.2
20260901050006 68 209 0.0 0.0 0.00 0.00 0.00 81 1022.5
20260901044506 68 185 0.0 0.0 0.00 0.00 0.00 81 1022.3
20260901043006 68 181 0.0 0.0 0.00 0.00 0.00 81 1022.2
20260901041503 68 180 0.0 0.0 0.00 0.00 0.00 81 1022.4
20260901040001 68 174 0.0 0.0 0.00 0.00 0.00 81 1022.6
20260901034607 68 172 0.0 0.0 0.00 0.00 0.00 81 1022.7
20260901033108 68 182 0.0 0.0 0.00 0.00 0.00 81 1022.8
20260901031559 68 173 0.0 0.0 0.00 0.00 0.00 81 1023.2